Total_Precipitation_Accumulation
2.31 2.18 3.75 4.03 3.59 3.24 3.14 3.14 3.10 3.10 3.16 3.20 2.99 2.69 2.41 2.24 2.05 1.88 1.68 1.67 1.75 1.81 1.88 1.91 1.94 1.78 1.65 1.55 1.51 1.66 1.86 2.02 2.13 2.14 2.20 2.38 2.40 2.53 2.80 3.13 3.21 3.46 3.07
1.91 2.07 3.58 3.81 3.33 2.92 2.82 2.94 3.09 3.17 3.27 3.19 2.99 2.75 2.51 2.25 1.99 1.84 1.64 1.59 1.61 1.61 1.56 1.70 1.85 1.76 1.68 1.75 1.83 1.88 1.93 1.92 2.02 2.19 2.44 2.53 2.45 2.51 2.62 3.03 3.04 3.34 3.16
1.80 1.90 2.79 3.53 3.18 2.80 2.68 2.83 3.20 3.15 3.28 3.13 2.95 2.73 2.48 2.16 1.95 1.91 1.71 1.65 1.69 1.58 1.46 1.52 1.74 1.68 1.63 1.69 1.75 1.85 1.84 1.95 2.11 2.32 2.81 3.45 2.73 2.53 2.60 2.79 2.90 2.80 3.02
1.61 1.70 2.31 3.38 3.05 2.90 2.88 2.98 3.09 3.14 3.30 3.07 2.86 2.60 2.39 2.16 2.09 2.08 2.08 2.07 1.91 1.69 1.57 1.52 1.71 1.63 1.48 1.58 1.76 1.77 1.73 1.92 2.12 2.21 2.63 3.32 3.16 2.67 2.75 2.91 3.00 2.79 2.90
1.53 1.65 2.58 3.41 3.08 2.92 2.91 2.98 3.04 3.24 3.32 3.07 2.73 2.41 2.23 2.22 2.41 2.42 2.30 2.16 1.92 1.76 1.61 1.53 1.60 1.63 1.53 1.48 1.59 1.63 1.64 1.80 2.00 1.86 2.32 3.19 3.59 3.18 2.66 2.78 2.95 2.89 2.89
1.74 1.75 2.59 3.43 3.28 3.07 2.95 2.92 3.03 3.16 3.25 3.20 2.83 2.45 2.29 2.26 2.29 2.31 2.20 2.06 1.87 1.78 1.65 1.65 1.62 1.59 1.57 1.49 1.51 1.59 1.64 1.73 1.58 1.72 2.34 2.94 3.41 3.11 2.55 2.50 2.76 2.89 2.92
1.67 1.76 2.28 3.11 3.13 2.99 2.89 2.97 3.15 3.13 3.09 3.08 2.87 2.55 2.40 2.33 2.24 2.28 2.20 2.04 1.74 1.70 1.63 1.70 1.66 1.58 1.48 1.47 1.46 1.45 1.59 1.41 1.21 1.63 2.17 2.78 3.01 2.93 2.65 2.65 2.84 2.86 3.05
1.66 1.65 2.00 2.71 2.99 2.92 2.93 2.96 3.06 3.12 3.05 2.85 2.55 2.39 2.32 2.34 2.30 2.26 2.17 2.04 1.75 1.72 1.66 1.59 1.60 1.54 1.48 1.50 1.50 1.49 1.48 1.13 0.95 1.30 1.86 2.65 3.15 3.09 2.80 2.65 2.78 2.88 3.09
1.87 1.86 2.03 2.38 2.63 3.05 3.15 3.02 3.08 3.16 3.04 2.77 2.40 2.31 2.26 2.25 2.08 2.06 2.04 1.91 1.73 1.69 1.57 1.47 1.45 1.44 1.51 1.55 1.53 1.51 1.39 1.07 1.00 1.33 1.40 2.24 2.94 3.04 2.73 2.67 2.72 2.86 3.11
1.93 1.93 1.88 2.04 2.17 2.49 2.76 3.03 3.17 3.12 3.02 2.82 2.42 2.26 2.20 2.14 1.97 1.88 1.77 1.76 1.70 1.71 1.69 1.54 1.47 1.48 1.57 1.62 1.58 1.47 1.34 1.04 1.02 1.13 1.53 2.14 3.04 3.13 2.83 2.76 2.78 2.86 2.99
1.78 1.71 1.64 1.73 1.88 2.12 2.41 2.65 2.97 2.94 2.85 2.65 2.30 2.22 2.15 1.94 1.65 1.62 1.56 1.91 1.82 1.78 1.74 1.70 1.68 1.64 1.59 1.53 1.54 1.34 1.03 0.98 1.19 1.34 1.78 2.65 3.42 3.45 3.15 2.94 2.94 2.89 2.83
1.79 1.65 1.47 1.48 1.62 1.77 1.93 2.49 2.62 2.27 2.11 1.92 2.05 2.01 1.94 1.90 1.70 1.31 1.49 1.93 1.99 1.94 1.74 1.67 1.73 1.52 1.19 1.08 1.14 1.02 0.85 0.97 1.16 1.30 1.80 2.99 3.56 3.56 3.18 2.93 3.03 3.02 2.86
1.57 1.49 1.37 1.36 1.34 1.34 1.55 1.93 2.19 2.21 2.12 1.90 1.78 1.74 1.82 1.74 1.54 1.32 1.42 1.54 1.51 1.43 1.31 1.31 1.24 1.02 0.93 1.01 1.02 0.86 0.81 0.94 1.09 1.24 1.89 3.08 3.75 3.68 3.20 2.97 2.99 2.95 2.85
1.38 1.31 1.24 1.19 1.17 1.13 1.22 1.33 1.46 1.70 1.78 1.72 1.51 1.34 1.42 1.57 1.50 1.31 1.33 1.35 1.35 1.31 1.38 1.36 1.25 1.11 1.05 1.06 1.01 0.99 1.00 1.10 1.15 1.32 2.04 3.04 4.06 4.10 3.80 3.58 3.33 3.14 2.95
1.36 1.30 1.19 1.06 1.07 1.10 1.20 1.26 1.17 1.37 1.53 1.58 1.53 1.32 1.25 1.31 1.36 1.30 1.16 1.25 1.27 1.27 1.27 1.26 1.20 1.21 1.28 1.25 1.19 1.18 1.22 1.22 1.21 1.29 1.71 2.48 3.64 4.46 4.59 4.43 3.79 3.37 3.13
1.21 1.28 1.19 1.15 1.19 1.14 1.10 1.15 1.12 1.15 1.27 1.29 1.40 1.35 1.30 1.28 1.27 1.28 1.24 1.29 1.35 1.36 1.31 1.24 1.16 1.27 1.31 1.32 1.29 1.22 1.18 1.10 1.16 1.31 1.59 1.88 2.28 3.05 4.10 4.46 4.12 3.76 3.51
1.12 1.11 1.05 1.07 1.15 1.12 1.12 1.14 1.12 1.23 1.27 1.24 1.26 1.22 1.31 1.27 1.25 1.28 1.30 1.32 1.32 1.39 1.43 1.42 1.34 1.37 1.39 1.47 1.49 1.31 1.23 1.17 1.14 1.25 1.44 1.67 1.61 1.81 2.75 3.72 4.06 3.82 3.67
0.99 0.98 0.97 0.84 0.94 1.07 1.18 1.25 1.32 1.38 1.40 1.38 1.27 1.18 1.17 1.16 1.18 1.26 1.28 1.31 1.39 1.38 1.45 1.55 1.56 1.59 1.59 1.62 1.62 1.42 1.24 1.32 1.22 1.23 1.42 1.50 1.55 1.55 1.86 2.35 2.81 3.15 3.58
0.98 0.99 1.04 0.95 0.97 1.09 1.17 1.33 1.43 1.54 1.62 1.67 1.55 1.52 1.44 1.31 1.33 1.43 1.49 1.47 1.50 1.56 1.58 1.51 1.54 1.67 1.76 1.74 1.56 1.49 1.39 1.40 1.37 1.35 1.54 1.54 1.56 1.60 1.66 1.62 1.76 2.11 2.80
1.06 1.07 1.13 1.19 1.19 1.32 1.49 1.73 1.94 2.05 2.16 2.23 2.14 2.05 1.86 1.63 1.58 1.75 1.79 1.66 1.70 1.82 1.92 1.81 1.91 1.81 1.71 1.78 1.58 1.53 1.53 1.48 1.43 1.50 1.56 1.63 1.75 1.62 1.61 1.54 1.54 1.47 1.85
1.12 1.09 1.09 1.16 1.26 1.35 1.56 1.86 2.38 2.63 2.70 2.56 2.49 2.40 2.20 1.96 1.93 2.12 2.14 2.12 2.10 2.11 2.10 2.04 2.26 2.20 1.91 1.81 2.03 2.01 1.81 1.61 1.51 1.47 1.51 1.74 1.86 1.76 1.79 1.69 1.63 1.56 1.44
0.97 0.99 1.16 1.24 1.35 1.44 1.63 1.90 2.27 2.69 2.76 2.69 2.55 2.44 2.34 2.20 2.15 2.18 2.42 2.53 2.49 2.68 2.70 2.48 2.60 2.63 2.25 2.02 2.35 2.72 2.43 2.16 1.66 1.51 1.63 1.68 1.77 1.88 1.93 1.77 1.60 1.56 1.56
0.90 0.88 0.98 1.18 1.42 1.73 1.97 2.23 2.38 2.65 2.74 2.72 2.58 2.50 2.51 2.43 2.29 2.37 2.48 2.65 2.65 2.75 2.96 3.08 2.97 3.05 2.83 2.39 2.28 2.67 2.66 2.50 2.23 1.81 1.70 1.76 1.87 1.92 2.00 2.01 1.81 1.57 1.54
0.80 0.83 0.89 1.03 1.33 1.74 2.08 2.29 2.52 2.87 2.95 2.79 2.69 2.57 2.57 2.59 2.58 2.69 2.69 2.74 2.75 2.76 2.88 3.05 3.04 3.21 3.34 2.92 2.55 2.29 2.14 2.18 2.37 2.19 1.89 1.82 1.94 1.93 1.93 1.97 2.04 1.92 1.73
0.82 0.88 0.95 1.14 1.42 1.75 1.96 2.21 2.55 2.73 2.83 2.89 2.75 2.68 2.65 2.68 2.70 2.77 2.83 2.93 2.90 2.88 2.80 3.02 3.12 3.24 3.19 3.14 3.01 2.83 2.66 2.41 2.05 2.21 2.22 2.01 1.90 1.78 1.82 1.95 2.14 2.18 2.04
0.89 0.99 1.11 1.26 1.46 1.72 1.93 2.18 2.33 2.49 2.65 2.71 2.73 2.65 2.61 2.66 2.76 2.64 2.57 2.74 2.79 2.80 2.75 2.90 3.04 3.21 3.21 3.24 3.17 2.88 2.90 2.82 2.46 2.40 2.23 2.05 2.08 1.88 1.78 1.85 1.91 1.95 2.06